Burbank, CA (91508)

3:59 PM PDT on July 23, 2016 (GMT -0700)
Brace Canyon Park | | Change Station
Active Advisory: Excessive Heat Warning

Elev 955 ft 34.21 °N, 118.33 °W | Updated 11 minutes ago

Partly Cloudy
Partly Cloudy
92.5 °F
Feels Like 94 °F
N
3.2
Wind Variable Wind from West

Today
High -- | Low -- °F
--% Chance of Precip.
Yesterday
High -- | Low -- °F
Precip. -- in
Pressure 29.77 in
Visibility 10.0 miles
Clouds Few 12000 ft
Heat Index 94 °F
Dew Point 63 °F
Humidity 38%
Rainfall 0.00 in
Snow Depth Not available.
5:58 AM 8:00 PM
Waning Gibbous, 82% visible
METAR KBUR 232253Z 18011KT 10SM FEW120 31/14 A2981 RMK AO2 SLP079 T03110144
Pressure 29.77 in
Visibility 10.0 miles
Clouds Few 12000 ft
Heat Index 94 °F
Dew Point 63 °F
Humidity 38%
Rainfall 0.00 in
Snow Depth Not available.
5:58 AM 8:00 PM
Waning Gibbous, 82% visible
METAR KBUR 232253Z 18011KT 10SM FEW120 31/14 A2981 RMK AO2 SLP079 T03110144

10-Day Weather Forecast

Almanac

Astronomy

Jul. 23, 2016 Rise Set
Actual Time
Civil Twilight
Nautical Twilight
Astronomical Twilight
Moon
Length of Visible Light
Length of Day
Tomorrow will be .
, % of the Moon is Illuminated

Today's Extremes

State Highs State Lows

Community

WunderPhotos

Upload Photos

1,926,950 photos uploaded!

WunderBlog® & News

Nearby

Air Quality

  Air Quality AQ Index Pollutant
Not available.

Snow Depth

Station Depth Elevation

Earthquake Activity

City Distance Mag. Time & Date
Minimum magnitude displayed is 2.5.

Coastal Water Temperatures

Place Temperature

Stations

Nearby Weather Stations

Station Location Temp. Windchill Dew Point Humidity Wind Precip. Elev Updated Type
                   

Watches & Warnings

Excessive Heat Warning
Issued: 1:07 PM PDT Jul. 23, 2016 – National Weather Service

... Excessive heat warning remains in effect until 8 PM PDT this
evening...

* heat... high temperatures between 100 and 110 degrees will be
common today... with heat index values near 105 degrees at
times.

* Impacts... dangerous heat-related illness is possible...
especially for sensitive populations... those conducting
outdoor activities... and people without access to air
conditioning. Electricity demands will be high and power
outages are possible.

Precautionary/preparedness actions...

Never... ever... leave people or pets in enclosed vehicles... even
for a short period of time.

Take extra precautions if you work or spend time outside. When
possible... reschedule strenuous activities to early morning or
evening. Know the signs and symptoms of heat exhaustion and heat
stroke. Wear light weight and loose fitting clothing when
possible and drink plenty of water.

To reduce risk during outdoor work the occupational safety and
health administration recommends scheduling frequent rest breaks
in shaded or air conditioned environments. Anyone overcome by
heat should be moved to a cool and shaded location. Heat stroke
is an emergency - call 911.



Sirard